Location: Lac Echo
(45.9375°N, 75.4580°W)
Time: 11:52:22
(UTC-05:00)

Amateur Radio Satellites - All Passes

Search period start: 26 February 2017 11:22
Search period end: 27 February 2017 11:22
Location: Lac Echo, 45.9375°N, 75.4580°W

Satellite Date Start Highest point End Downlink Frequencies (MHz)
Time Altitude Azimuth
ESTCUBE 1 26 Feb 11:23:01 11:27:26 55° 100° (E) 11:31:49 437.505/2401.250
DUCHIFAT 1 26 Feb 11:27:31 11:31:34 46° 261° (W) 11:35:40 145.980
50 SAT 26 Feb 11:31:13 11:32:49 13° 91° (E) 11:34:25 437.505
DX 1 26 Feb 11:34:20 11:35:21 11° 88° (E) 11:36:21 434.975-435.025
EO-79 26 Feb 11:40:04 11:43:47 29° 264° (W) 11:47:32 145.935-145.965
FO-29 26 Feb 11:41:20 11:46:31 20° 275° (W) 11:51:58 435.910
VELOX 1 26 Feb 11:43:57 11:47:53 31° 96° (E) 11:51:48 145.980
SPROUT 26 Feb 11:44:05 11:47:42 26° 94° (E) 11:51:19 437.525
AO-85 26 Feb 11:51:57 11:55:39 39° 47° (NE) 11:59:22 145.980
YUBILEINY 26 Feb 11:52:08 12:00:02 36° 293° (WNW) 12:07:57 435.215
NANOSAT C BR1 26 Feb 11:56:54 12:00:11 22° 267° (W) 12:03:31 145.865
ISS 26 Feb 11:57:20 12:00:26 37° 14° (NNE) 12:03:32 437.550
POLYITAN 1 26 Feb 11:58:42 12:01:49 20° 268° (W) 12:04:58 437.675
AO-7 26 Feb 11:58:44 12:03:03 15° 39° (NE) 12:07:21 .
QB50P2 26 Feb 12:02:05 12:04:54 17° 269° (W) 12:07:45 145.880/145.840
Gurwin Techsat 1B 26 Feb 12:10:52 12:15:35 34° 65° (ENE) 12:20:20 435.225
Tancredo 1 26 Feb 12:20:22 12:23:32 46° 19° (NNE) 12:26:40 437.200
BUGSAT 1 26 Feb 12:20:30 12:24:12 34° 263° (W) 12:27:59 437.445
BEESAT 3 26 Feb 12:22:47 12:23:59 11° 29° (NNE) 12:25:11 437.485
Oscar 19 26 Feb 12:55:54 13:00:59 61° 259° (WSW) 13:06:06 437.125/150
ESTCUBE 1 26 Feb 13:00:48 13:03:50 18° 298° (WNW) 13:06:51 437.505/2401.250
50 SAT 26 Feb 13:02:52 13:06:11 43° 288° (WNW) 13:09:28 437.505
BEESAT 2 26 Feb 13:03:14 13:04:49 12° 30° (NNE) 13:06:24 435.950
DX 1 26 Feb 13:07:44 13:12:06 81° 286° (WNW) 13:16:27 434.975-435.025
UKube-1 26 Feb 13:17:31 13:21:51 88° 284° (WNW) 13:26:11 .
SPROUT 26 Feb 13:19:47 13:23:39 33° 292° (WNW) 13:27:30 437.525
VELOX 1 26 Feb 13:20:28 13:24:17 29° 293° (WNW) 13:28:05 145.980
ITAMSAT 1 26 Feb 13:32:31 13:37:12 35° 66° (ENE) 13:41:56 435.822/435.867
AO-85 26 Feb 13:32:46 13:35:50 22° 245° (WSW) 13:38:55 145.980
ISS 26 Feb 13:33:47 13:37:02 58° 213° (SSW) 13:40:15 437.550
AO-7 26 Feb 13:45:58 13:53:59 53° 62° (ENE) 14:02:01 .
ITUPSAT 1 26 Feb 13:48:29 13:51:24 16° 90° (E) 13:54:19 437.325
Gurwin Techsat 1B 26 Feb 13:50:35 13:55:29 37° 263° (W) 14:00:24 435.225
BEESAT 26 Feb 13:53:58 13:57:16 18° 91° (E) 14:00:35 436.000
Tancredo 1 26 Feb 13:56:46 13:59:46 35° 218° (SW) 14:02:43 437.200
BEESAT 3 26 Feb 13:58:35 14:02:32 50° 50° (NE) 14:06:26 437.485
BEESAT 2 26 Feb 14:39:29 14:43:29 56° 50° (NE) 14:47:27 435.950
DX 1 26 Feb 14:46:52 14:47:32 10° 303° (WNW) 14:48:11 434.975-435.025
UKube-1 26 Feb 14:56:01 14:57:11 11° 303° (WNW) 14:58:21 .
ITAMSAT 1 26 Feb 15:11:57 15:16:39 34° 264° (W) 15:21:24 435.822/435.867
RS-15 26 Feb 15:20:28 15:28:41 22° 98° (E) 15:37:02 29.354- 29.394
ITUPSAT 1 26 Feb 15:24:55 15:29:41 65° 288° (WNW) 15:34:25 437.325
PCSat 26 Feb 15:26:33 15:31:30 38° 113° (ESE) 15:36:30 145.827
BEESAT 26 Feb 15:30:42 15:35:24 56° 289° (WNW) 15:40:04 436.000
BEESAT 3 26 Feb 15:36:59 15:39:48 18° 247° (WSW) 15:42:35 437.485
AO-7 26 Feb 15:39:14 15:46:57 40° 262° (W) 15:54:43 .
MOZHAYETS 4 26 Feb 15:40:19 15:44:58 77° 104° (ESE) 15:49:32
KKS-1 26 Feb 16:02:10 16:06:14 33° 97° (E) 16:10:17 437.445
KAITUO 1B 26 Feb 16:16:44 16:18:48 14° 63° (ENE) 16:20:53 145.475/437.950
BEESAT 2 26 Feb 16:18:14 16:20:52 17° 248° (WSW) 16:23:29 435.950
DOVE 4 26 Feb 16:18:38 16:21:47 21° 64° (ENE) 16:24:59 437.250
XW-2F 26 Feb 16:22:52 16:25:38 19° 65° (ENE) 16:28:26 145.980 - 146.000
NO-84 26 Feb 16:25:14 16:28:11 34° 134° (SE) 16:31:23 435.350 FM
XW-2D 26 Feb 16:28:00 16:31:03 23° 67° (ENE) 16:34:07 145.860 - 145.880
CUTE-I 26 Feb 16:29:08 16:33:46 31° 64° (ENE) 16:38:26 437.470
STARS 26 Feb 16:32:36 16:36:36 32° 97° (E) 16:40:33 437.465
XW-2B 26 Feb 16:32:56 16:36:06 25° 68° (ENE) 16:39:18 145.730 - 145.750
M-CUBED/EXP-1 PRIME 26 Feb 16:35:08 16:36:53 13° 98° (E) 16:38:39 437.505
XW-2C 26 Feb 16:41:21 16:44:46 31° 69° (ENE) 16:48:12 145.795 - 145.815
CUBESAT XI-V 26 Feb 16:43:08 16:47:41 57° 100° (E) 16:52:12 437.345
NUDT-PHONESAT 26 Feb 16:48:34 16:51:53 30° 69° (ENE) 16:55:13 437.300
HO-68 26 Feb 16:54:12 16:59:15 21° 52° (NE) 17:04:19 435.675
LilacSat-2 26 Feb 16:59:14 17:02:59 51° 73° (ENE) 17:06:47 437.200
PCSat 26 Feb 17:09:50 17:14:54 39° 312° (NW) 17:19:59 145.827
MOZHAYETS 4 26 Feb 17:19:05 17:21:30 14° 301° (WNW) 17:23:55
RS-15 26 Feb 17:27:08 17:39:05 79° 121° (ESE) 17:51:27 29.354- 29.394
KKS-1 26 Feb 17:38:54 17:42:42 28° 294° (WNW) 17:46:29 437.445
XW-2A 26 Feb 17:40:39 17:43:20 22° 67° (ENE) 17:46:02 145.665 - 145.685
KAITUO 1B 26 Feb 17:48:41 17:52:25 52° 260° (W) 17:56:10 145.475/437.950
CUTE 1.7 + AOD 2 26 Feb 17:55:13 17:58:48 27° 67° (ENE) 18:02:23 437.475
DOVE 4 26 Feb 17:55:26 17:59:17 37° 263° (W) 18:03:13 437.250
XW-2F 26 Feb 17:55:59 17:59:33 37° 263° (W) 18:03:09 145.980 - 146.000
XW-2D 26 Feb 18:01:41 18:05:07 30° 264° (W) 18:08:34 145.860 - 145.880
NO-84 26 Feb 18:02:37 18:05:48 38° 335° (NNW) 18:09:17 435.350 FM
XW-2B 26 Feb 18:06:53 18:10:14 27° 265° (W) 18:13:35 145.730 - 145.750
M-CUBED/EXP-1 PRIME 26 Feb 18:07:53 18:11:35 61° 292° (WNW) 18:15:37 437.505
CUTE-I 26 Feb 18:08:40 18:13:41 41° 262° (W) 18:18:45 437.470
STARS 26 Feb 18:09:03 18:12:52 29° 294° (WNW) 18:16:40 437.465
XW-2C 26 Feb 18:15:57 18:19:00 22° 266° (W) 18:22:05 145.795 - 145.815
CUBESAT XI-V 26 Feb 18:21:32 18:24:38 18° 298° (WNW) 18:27:44 437.345
NUDT-PHONESAT 26 Feb 18:22:52 18:25:50 22° 266° (W) 18:28:50 437.300
CUBEBUG 2 26 Feb 18:27:39 18:31:29 28° 66° (ENE) 18:35:27 437.445
AO-73 26 Feb 18:33:32 18:35:35 13° 59° (ENE) 18:37:40 145.935
AAUSAT CUBESAT 2 26 Feb 18:35:09 18:38:29 24° 66° (ENE) 18:41:49 437.432
LilacSat-2 26 Feb 18:35:31 18:37:34 14° 270° (W) 18:39:38 437.200
Oscar 11 26 Feb 18:38:49 18:40:33 12° 59° (ENE) 18:42:18 .
HO-68 26 Feb 18:38:53 18:46:04 88° 71° (ENE) 18:53:17 435.675
SEEDS 26 Feb 18:49:06 18:53:17 64° 74° (ENE) 18:57:28 437.485
PCSat 26 Feb 18:57:58 18:59:55 12° 336° (NNW) 19:01:51 145.827
UWE-3 26 Feb 19:01:39 19:05:49 39° 69° (ENE) 19:10:07 435.000/436.395/437.385
XW-2A 26 Feb 19:13:11 19:16:01 24° 265° (W) 19:18:52 145.665 - 145.685
STRAND 1 26 Feb 19:19:01 19:24:08 58° 101° (E) 19:29:11 437.568
ZACube-1 26 Feb 19:19:30 19:23:36 36° 69° (ENE) 19:27:48 437.345
CUTE 1.7 + AOD 2 26 Feb 19:30:42 19:34:32 31° 264° (W) 19:38:23 437.475
RS-15 26 Feb 19:41:18 19:52:49 45° 328° (NNW) 20:04:36 29.354- 29.394
NO-84 26 Feb 19:41:28 19:44:16 21° 357° (N) 19:47:17 435.350 FM
DELFI C3 26 Feb 19:55:11 19:58:12 21° 66° (ENE) 20:01:14 145.870
YUBILEINY 26 Feb 20:01:27 20:09:10 33° 66° (ENE) 20:16:47 435.215
CUBEBUG 2 26 Feb 20:03:58 20:08:00 33° 265° (W) 20:12:12 437.445
AO-73 26 Feb 20:06:39 20:11:08 84° 257° (WSW) 20:15:44 145.935
AAUSAT CUBESAT 2 26 Feb 20:10:01 20:13:48 34° 264° (W) 20:17:35 437.432
Oscar 11 26 Feb 20:11:41 20:16:02 83° 254° (WSW) 20:20:26 .
SEEDS 26 Feb 20:27:26 20:29:24 13° 271° (W) 20:31:22 437.485
SO-50 26 Feb 20:29:34 20:30:18 10° 107° (ESE) 20:31:02 436.795
PRISM 26 Feb 20:29:36 20:31:34 13° 90° (E) 20:33:31 437.425
HO-68 26 Feb 20:29:53 20:34:41 19° 271° (W) 20:39:30 435.675
UWE-3 26 Feb 20:38:46 20:42:24 24° 267° (W) 20:46:08 435.000/436.395/437.385
ZACube-1 26 Feb 20:56:13 20:59:57 25° 267° (W) 21:03:46 437.345
STRAND 1 26 Feb 20:59:02 21:02:54 22° 299° (WNW) 21:06:46 437.568
FO-29 26 Feb 21:03:26 21:06:56 14° 80° (E) 21:10:17 435.910
TIGRISAT 26 Feb 21:06:38 21:09:30 16° 89° (E) 21:12:20 435.000
UNISAT 6 26 Feb 21:06:39 21:09:44 17° 90° (E) 21:12:46 437.425
O/OREOS (USA 219) 26 Feb 21:09:44 21:11:31 12° 98° (E) 21:13:20 437.305
NO-84 26 Feb 21:19:29 21:22:52 28° 18° (NNE) 21:26:29 435.350 FM
DELFI C3 26 Feb 21:29:11 21:32:49 34° 263° (W) 21:36:27 145.870
LO-87 26 Feb 21:43:58 21:47:19 42° 72° (ENE) 21:50:42 145.935 - 145.965
YUBILEINY 26 Feb 21:57:58 22:06:32 62° 268° (W) 22:15:02 435.215
RS-15 26 Feb 21:58:49 22:09:29 32° 2° (N) 22:20:04 29.354- 29.394
PRISM 26 Feb 22:03:13 22:07:14 59° 288° (WNW) 22:11:15 437.425
SO-50 26 Feb 22:05:19 22:10:00 79° 124° (SE) 22:14:37 436.795
ESTCUBE 1 26 Feb 22:24:31 22:29:00 67° 73° (ENE) 22:33:29 437.505/2401.250
PCSat 26 Feb 22:29:12 22:32:12 15° 30° (NNE) 22:35:10 145.827
DX 1 26 Feb 22:31:37 22:33:56 14° 60° (ENE) 22:36:15 434.975-435.025
AIST 2D 26 Feb 22:37:34 22:40:04 18° 93° (E) 22:42:33 435.315
SPROUT 26 Feb 22:39:45 22:43:20 27° 66° (ENE) 22:46:58 437.525
UKube-1 26 Feb 22:40:51 22:42:49 13° 59° (ENE) 22:44:47 .
TIGRISAT 26 Feb 22:41:56 22:46:37 63° 287° (WNW) 22:51:12 435.000
UNISAT 6 26 Feb 22:42:10 22:46:49 58° 288° (WNW) 22:51:23 437.425
VELOX 1 26 Feb 22:43:21 22:47:22 37° 69° (ENE) 22:51:25 145.980
FO-29 26 Feb 22:45:45 22:53:27 70° 101° (E) 23:00:22 435.910
O/OREOS (USA 219) 26 Feb 22:45:47 22:50:16 75° 296° (WNW) 22:54:48 437.305
NO-84 26 Feb 22:56:55 23:00:57 88° 210° (SSW) 23:05:16 435.350 FM
DUCHIFAT 1 26 Feb 23:09:20 23:12:44 23° 94° (E) 23:16:07 145.980
LO-87 26 Feb 23:19:12 23:21:01 13° 269° (W) 23:22:51 145.935 - 145.965
EO-79 26 Feb 23:21:40 23:25:39 36° 97° (E) 23:29:35 145.935-145.965
NANOSAT C BR1 26 Feb 23:37:29 23:41:39 48° 99° (E) 23:45:47 145.865
50 SAT 26 Feb 23:38:39 23:42:09 80° 260° (W) 23:45:39 437.505
POLYITAN 1 26 Feb 23:39:33 23:43:48 56° 100° (E) 23:48:01 437.675
QB50P2 26 Feb 23:42:34 23:46:52 65° 102° (ESE) 23:51:07 145.880/145.840
SO-50 26 Feb 23:47:28 23:50:59 21° 324° (NW) 23:54:28 436.795
YUBILEINY 26 Feb 23:58:24 00:01:23 12° 290° (WNW) 00:04:22 435.215
BUGSAT 1 26 Feb 23:59:28 00:03:09 28° 95° (E) 00:06:48 437.445
ESTCUBE 1 27 Feb 00:03:57 00:06:15 14° 271° (W) 00:08:34 437.505/2401.250
DX 1 27 Feb 00:05:17 00:09:35 69° 257° (WSW) 00:13:55 434.975-435.025
AIST 2D 27 Feb 00:10:10 00:13:23 32° 289° (WNW) 00:16:34 435.315
PCSat 27 Feb 00:11:31 00:16:52 54° 52° (NE) 00:22:10 145.827
UKube-1 27 Feb 00:13:58 00:18:15 77° 256° (WSW) 00:22:35 .
RS-15 27 Feb 00:13:59 00:25:55 49° 35° (NE) 00:37:27 29.354- 29.394
SPROUT 27 Feb 00:15:23 00:19:10 31° 264° (W) 00:23:00 437.525
VELOX 1 27 Feb 00:20:23 00:23:55 24° 266° (W) 00:27:29 145.980
O/OREOS (USA 219) 27 Feb 00:28:47 00:30:31 12° 316° (NW) 00:32:16 437.305
FO-29 27 Feb 00:31:26 00:37:47 29° 303° (WNW) 00:43:42 435.910
NO-84 27 Feb 00:35:36 00:38:15 16° 232° (SW) 00:40:59 435.350 FM
DUCHIFAT 1 27 Feb 00:44:35 00:48:30 36° 291° (WNW) 00:52:25 145.980
ITUPSAT 1 27 Feb 00:57:07 01:01:03 26° 64° (ENE) 01:05:00 437.325
EO-79 27 Feb 00:57:46 01:01:14 24° 295° (WNW) 01:04:41 145.935-145.965
BEESAT 27 Feb 01:02:20 01:06:25 29° 65° (ENE) 01:10:32 436.000
Oscar 19 27 Feb 01:04:58 01:09:45 38° 97° (E) 01:14:31 437.125/150
MOZHAYETS 4 27 Feb 01:10:10 01:12:18 13° 58° (ENE) 01:14:26
NANOSAT C BR1 27 Feb 01:14:03 01:17:01 19° 297° (WNW) 01:19:59 145.865
POLYITAN 1 27 Feb 01:16:25 01:19:10 17° 298° (WNW) 01:21:54 437.675
QB50P2 27 Feb 01:19:45 01:22:09 15° 299° (WNW) 01:24:33 145.880/145.840
BUGSAT 1 27 Feb 01:34:45 01:38:29 30° 292° (WNW) 01:42:11 437.445
AO-7 27 Feb 01:48:08 01:50:46 12° 83° (E) 01:53:24 .
PCSat 27 Feb 01:55:30 01:59:56 26° 251° (WSW) 02:04:21 145.827
Gurwin Techsat 1B 27 Feb 02:03:36 02:08:56 73° 103° (ESE) 02:14:15 435.225
CUBESAT XI-V 27 Feb 02:16:07 02:16:31 10° 56° (NE) 02:16:56 437.345
RS-15 27 Feb 02:27:03 02:39:16 70° 242° (WSW) 02:50:57 29.354- 29.394
ITUPSAT 1 27 Feb 02:34:07 02:38:39 42° 261° (W) 02:43:15 437.325
BEESAT 27 Feb 02:39:40 02:44:05 36° 263° (W) 02:48:32 436.000
MOZHAYETS 4 27 Feb 02:44:07 02:48:47 86° 257° (WSW) 02:53:28
Oscar 19 27 Feb 02:44:31 02:48:57 30° 295° (WNW) 02:53:22 437.125/150
KKS-1 27 Feb 03:02:19 03:06:28 41° 69° (ENE) 03:10:39 437.445
ITAMSAT 1 27 Feb 03:21:31 03:26:46 70° 103° (ESE) 03:31:58 435.822/435.867
M-CUBED/EXP-1 PRIME 27 Feb 03:23:23 03:25:50 20° 61° (ENE) 03:28:17 437.505
STARS 27 Feb 03:31:19 03:35:22 38° 68° (ENE) 03:39:26 437.465
AO-7 27 Feb 03:37:00 03:45:16 62° 104° (ESE) 03:53:26 .
Gurwin Techsat 1B 27 Feb 03:44:44 03:48:19 19° 302° (WNW) 03:51:53 435.225
AO-85 27 Feb 03:48:06 03:52:31 56° 121° (ESE) 03:56:39 145.980
CUBESAT XI-V 27 Feb 03:48:25 03:53:04 73° 74° (ENE) 03:57:42 437.345
KKS-1 27 Feb 04:39:49 04:43:12 21° 267° (W) 04:46:37 437.445
RS-15 27 Feb 04:42:09 04:49:17 18° 265° (W) 04:56:17 29.354- 29.394
SO-50 27 Feb 04:54:32 04:58:14 24° 38° (NE) 05:01:52 436.795
M-CUBED/EXP-1 PRIME 27 Feb 04:57:28 05:00:14 25° 258° (WSW) 05:03:01 437.505
STRAND 1 27 Feb 05:00:42 05:03:50 17° 58° (ENE) 05:06:59 437.568
ITAMSAT 1 27 Feb 05:02:07 05:05:41 19° 301° (WNW) 05:09:15 435.822/435.867
STARS 27 Feb 05:08:21 05:11:50 23° 266° (W) 05:15:20 437.465
KAITUO 1B 27 Feb 05:19:05 05:20:51 13° 90° (E) 05:22:36 145.475/437.950
XW-2F 27 Feb 05:26:17 05:29:01 19° 93° (E) 05:31:43 145.980 - 146.000
BEESAT 3 27 Feb 05:27:58 05:31:34 37° 118° (ESE) 05:35:15 437.485
CUBESAT XI-V 27 Feb 05:28:43 05:30:57 13° 272° (W) 05:33:10 437.345
AO-85 27 Feb 05:29:42 05:33:10 23° 320° (NW) 05:36:30 145.980
AO-7 27 Feb 05:30:17 05:37:38 36° 305° (NW) 05:44:57 .
XW-2D 27 Feb 05:31:52 05:34:56 23° 94° (E) 05:37:58 145.860 - 145.880
XW-2B 27 Feb 05:36:52 05:40:04 25° 94° (E) 05:43:14 145.730 - 145.750
XW-2C 27 Feb 05:45:25 05:48:52 31° 96° (E) 05:52:17 145.795 - 145.815
DOVE 4 27 Feb 05:50:18 05:54:53 45° 99° (E) 05:59:40 437.250
NUDT-PHONESAT 27 Feb 05:50:23 05:53:43 29° 96° (E) 05:57:00 437.300
LilacSat-2 27 Feb 06:04:09 06:07:57 54° 100° (E) 06:11:41 437.200
HO-68 27 Feb 06:06:12 06:09:43 14° 86° (E) 06:13:12 435.675
BEESAT 2 27 Feb 06:10:23 06:14:08 43° 119° (ESE) 06:17:57 435.950
ISS 27 Feb 06:17:06 06:18:10 11° 132° (SE) 06:19:13 437.550
CUTE-I 27 Feb 06:22:38 06:28:01 67° 102° (ESE) 06:33:22 437.470
XW-2A 27 Feb 06:32:56 06:35:14 17° 93° (E) 06:37:32 145.665 - 145.685
SO-50 27 Feb 06:34:35 06:39:02 59° 238° (WSW) 06:43:26 436.795
Tancredo 1 27 Feb 06:36:30 06:38:44 17° 136° (SE) 06:40:58 437.200
STRAND 1 27 Feb 06:37:14 06:42:22 80° 256° (WSW) 06:47:34 437.568
KAITUO 1B 27 Feb 06:51:31 06:55:12 51° 287° (WNW) 06:58:50 145.475/437.950
XW-2F 27 Feb 06:59:47 07:03:17 35° 290° (WNW) 07:06:45 145.980 - 146.000
XW-2D 27 Feb 07:05:48 07:09:09 29° 291° (WNW) 07:12:28 145.860 - 145.880
BEESAT 3 27 Feb 07:05:53 07:09:16 27° 317° (NW) 07:12:42 437.485
XW-2B 27 Feb 07:10:59 07:14:14 27° 292° (WNW) 07:17:27 145.730 - 145.750
CUTE 1.7 + AOD 2 27 Feb 07:12:40 07:16:34 35° 97° (E) 07:20:26 437.475
O/OREOS (USA 219) 27 Feb 07:14:12 07:18:29 38° 58° (ENE) 07:22:47 437.305
XW-2C 27 Feb 07:19:56 07:22:54 22° 294° (WNW) 07:25:52 145.795 - 145.815
FO-29 27 Feb 07:20:36 07:22:51 11° 42° (NE) 07:25:07 435.910
PRISM 27 Feb 07:21:26 07:23:39 14° 61° (ENE) 07:25:52 437.425
NUDT-PHONESAT 27 Feb 07:24:32 07:27:31 22° 293° (WNW) 07:30:29 437.300
AO-7 27 Feb 07:26:42 07:27:58 10° 329° (NNW) 07:29:15 .
DOVE 4 27 Feb 07:28:35 07:32:20 24° 295° (WNW) 07:36:16 437.250
LilacSat-2 27 Feb 07:39:45 07:41:47 14° 298° (WNW) 07:43:49 437.200
BEESAT 2 27 Feb 07:48:47 07:52:05 25° 319° (NW) 07:55:27 435.950
AAUSAT CUBESAT 2 27 Feb 07:49:25 07:53:04 29° 96° (E) 07:56:39 437.432
ISS 27 Feb 07:50:48 07:54:05 71° 149° (SSE) 07:57:23 437.550
HO-68 27 Feb 07:51:26 07:58:37 75° 105° (ESE) 08:05:46 435.675
CUBEBUG 2 27 Feb 07:51:38 07:56:14 45° 98° (E) 08:00:45 437.445
AO-73 27 Feb 07:53:20 07:56:16 17° 90° (E) 07:59:11 145.935
Oscar 11 27 Feb 07:57:40 08:00:15 15° 90° (E) 08:02:48 .
CUTE-I 27 Feb 08:03:42 08:07:33 20° 301° (WNW) 08:11:25 437.470
XW-2A 27 Feb 08:04:59 08:08:07 32° 290° (WNW) 08:11:14 145.665 - 145.685
SEEDS 27 Feb 08:05:55 08:10:07 90° 73° (ENE) 08:14:16 437.485
TIGRISAT 27 Feb 08:07:31 08:10:44 19° 62° (ENE) 08:14:00 435.000
UNISAT 6 27 Feb 08:07:42 08:11:03 21° 63° (ENE) 08:14:28 437.425
Tancredo 1 27 Feb 08:11:24 08:14:40 79° 335° (NNW) 08:17:55 437.200
STRAND 1 27 Feb 08:21:27 08:22:22 10° 274° (W) 08:23:18 437.568
UWE-3 27 Feb 08:24:41 08:29:21 62° 101° (E) 08:33:53 435.000/436.395/437.385
ZACube-1 27 Feb 08:41:06 08:45:36 55° 100° (E) 08:49:59 437.345
CUTE 1.7 + AOD 2 27 Feb 08:48:53 08:52:14 23° 294° (WNW) 08:55:34 437.475
O/OREOS (USA 219) 27 Feb 08:53:57 08:57:44 26° 257° (WSW) 09:01:31 437.305
PRISM 27 Feb 08:54:27 08:58:28 60° 258° (WSW) 09:02:31 437.425
FO-29 27 Feb 08:58:59 09:05:51 44° 64° (ENE) 09:13:09 435.910
DELFI C3 27 Feb 09:03:53 09:07:04 23° 94° (E) 09:10:14 145.870
YUBILEINY 27 Feb 09:06:06 09:13:41 34° 83° (E) 09:21:15 435.215
AIST 2D 27 Feb 09:16:03 09:17:03 11° 62° (ENE) 09:18:03 435.315
AAUSAT CUBESAT 2 27 Feb 09:25:00 09:28:26 26° 293° (WNW) 09:31:51 437.432
ISS 27 Feb 09:27:41 09:30:45 34° 348° (NNW) 09:33:49 437.550
AO-73 27 Feb 09:28:24 09:32:53 55° 287° (WNW) 09:37:13 145.935
CUBEBUG 2 27 Feb 09:28:48 09:32:33 24° 296° (WNW) 09:36:17 437.445
Oscar 11 27 Feb 09:32:29 09:36:44 55° 287° (WNW) 09:40:56 .
HO-68 27 Feb 09:40:03 09:45:42 26° 305° (NW) 09:51:19 435.675
TIGRISAT 27 Feb 09:42:34 09:47:00 54° 260° (W) 09:51:34 435.000
UNISAT 6 27 Feb 09:42:59 09:47:23 50° 261° (W) 09:51:56 437.425
SEEDS 27 Feb 09:44:22 09:45:07 10° 301° (WNW) 09:45:52 437.485
Tancredo 1 27 Feb 09:48:19 09:51:15 30° 353° (N) 09:54:11 437.200
UWE-3 27 Feb 10:02:13 10:05:18 18° 299° (WNW) 10:08:21 435.000/436.395/437.385
DUCHIFAT 1 27 Feb 10:03:28 10:06:49 23° 65° (ENE) 10:10:12 145.980
EO-79 27 Feb 10:16:11 10:20:04 36° 69° (ENE) 10:23:59 145.935-145.965
ESTCUBE 1 27 Feb 10:16:37 10:18:12 12° 88° (E) 10:19:48 437.505/2401.250
ZACube-1 27 Feb 10:18:18 10:21:27 19° 298° (WNW) 10:24:34 437.345
NANOSAT C BR1 27 Feb 10:31:34 10:35:37 48° 71° (ENE) 10:39:44 145.865
POLYITAN 1 27 Feb 10:34:04 10:38:13 56° 73° (ENE) 10:42:26 437.675
QB50P2 27 Feb 10:37:05 10:41:18 65° 73° (ENE) 10:45:32 145.880/145.840
AO-85 27 Feb 10:37:42 10:40:05 15° 34° (NE) 10:42:27 145.980
DELFI C3 27 Feb 10:38:27 10:41:53 30° 291° (WNW) 10:45:20 145.870
LO-87 27 Feb 10:41:50 10:45:13 37° 98° (E) 10:48:36 145.935 - 145.965
FO-29 27 Feb 10:43:50 10:50:46 46° 264° (W) 10:58:15 435.910
AIST 2D 27 Feb 10:46:15 10:49:47 62° 260° (W) 10:53:21 435.315
Oscar 19 27 Feb 10:48:58 10:50:44 12° 54° (NE) 10:52:31 437.125/150
BUGSAT 1 27 Feb 10:51:31 10:54:56 26° 66° (ENE) 10:58:25 437.445
YUBILEINY 27 Feb 11:01:19 11:10:00 60° 284° (WNW) 11:18:42 435.215
ISS 27 Feb 11:04:45 11:07:46 31° 8° (N) 11:10:45 437.550
